Regional Weather Roundup
Issued by NWS

Home | Current Version | Previous Version | Text Only | Print | Product List | Glossary On
Versions: 1 2 3 4 5 6 7 8 9 10 11 12 13 14 15 16 17 18 19 20 21 22 23 24 25 26 27 28 29 30 31 32 33 34 35 36 37 38 39 40 41 42 43 44 45 46 47 48 49 50
000
ASUS46 KSEW 251210
RWRWA

WASHINGTON REGIONAL WEATHER ROUNDUP
NATIONAL WEATHER SERVICE SEATTLE WA
500 AM PDT TUE JUL 25 2017

NOTE:"FAIR" INDICATES FEW OR NO CLOUDS BELOW 12,000 FEET WITH NO
SIGNIFICANT WEATHER AND/OR OBSTRUCTIONS TO VISIBILITY.

WAZ507-509-555>559-251300-
SEATTLE, TACOMA, EVERETT, AND VICINITY

CITY           SKY/WX    TMP DP  RH WIND       PRES   REMARKS
EVERETT        CLEAR     60  50  69 NW5       30.02R
6HR MIN TEMP:  59; 6HR MAX TEMP:  62;

BOEING FIELD   CLEAR     61  53  75 CALM      30.00R
6HR MIN TEMP:  61; 6HR MAX TEMP:  70;

RENTON         CLEAR     59  55  87 CALM      30.00R
6HR MIN TEMP:  59; 6HR MAX TEMP:  71;

SEATAC AIRPORT CLEAR     60  51  72 CALM      30.01S
6HR MIN TEMP:  60; 6HR MAX TEMP:  70;

JBLM-MCCHORD   CLEAR     52  52 100 CALM      30.01R
6HR MIN TEMP:  52; 6HR MAX TEMP:  66;

PUYALLUP       FAIR      54  54 100 CALM      30.01S
BREMERTON      CLEAR     49  46  90 CALM      30.01S
6HR MIN TEMP:  49; 6HR MAX TEMP:  63;

JBLM-FT LEWIS  CLEAR     54  53  95 SE3       30.00S
6HR MIN TEMP:  53; 6HR MAX TEMP:  68; 6HR PCP: TRACE;

TACOMA NARROWS CLEAR     57  50  77 CALM      30.02R
6HR MIN TEMP:  57; 6HR MAX TEMP:  66;

$$

WAZ001-503-506-510-514-515-251300-
NORTH INTERIOR

CITY           SKY/WX    TMP DP  RH WIND       PRES   REMARKS
BELLINGHAM     CLEAR     58  56  93 S5        30.00S
6HR MIN TEMP:  56; 6HR MAX TEMP:  61;

FRIDAY HARBOR  CLEAR     49  49 100 CALM      30.02R
6HR MIN TEMP:  49; 6HR MAX TEMP:  54;

EASTSOUND      CLEAR     63  55  77 CALM      30.01S
PORT ANGELES   CLEAR     50  48  93 CALM      30.01S
6HR MIN TEMP:  50; 6HR MAX TEMP:  60;

EDIZ HOOK      FAIR      51  47  88 S3        30.02R
PORT TOWNSEND  FAIR      46  46 100 CALM      30.02R
NAS WHIDBEY    PTCLDY    54  48  80 CALM      30.05R
6HR MIN TEMP:  53; 6HR MAX TEMP:  57;

ARLINGTON      CLEAR     52  50  93 CALM      30.02R
6HR MIN TEMP:  50; 6HR MAX TEMP:  61;

BURLINGTON       N/A     52  52 100 CALM      30.01S
$$

WAZ020-022-039-040-504-511-512-251300-
SOUTHWEST INTERIOR

CITY           SKY/WX    TMP DP  RH WIND       PRES   REMARKS
SHELTON        CLEAR     56  54  93 W5        29.99R
6HR MIN TEMP:  56; 6HR MAX TEMP:  66;

OLYMPIA        CLEAR     52  51  97 CALM      30.01R
6HR MIN TEMP:  52; 6HR MAX TEMP:  67;

CHEHALIS       FAIR      54  54 100 CALM      30.01R
KELSO          MOCLDY    58  55  90 N5        30.01R
6HR MIN TEMP:  58; 6HR MAX TEMP:  65;

VANCOUVER      CLEAR     63  55  75 N3        29.97S
6HR MIN TEMP:  63; 6HR MAX TEMP:  73; 6HR PCP: TRACE;

SCAPPOOSE, OR  CLEAR     63  52  67 NW8       29.96S
6HR MIN TEMP:  61; 6HR MAX TEMP:  70;

PORTLAND, OR   PTCLDY    62  55  77 CALM      29.98R
6HR MIN TEMP:  62; 6HR MAX TEMP:  73;

$$

WAZ021-516-517-251300-
WASHINGTON COAST

CITY           SKY/WX    TMP DP  RH WIND       PRES   REMARKS
FORKS          PTCLDY    50  48  93 CALM      30.02S
6HR MIN TEMP:  48; 6HR MAX TEMP:  57;

HOQUIAM        CLEAR     53  52  96 N3        30.03R FOG
6HR MIN TEMP:  53; 6HR MAX TEMP:  58;

ASTORIA, OR    CLOUDY    57  54  89 NW7       30.03R
6HR MIN TEMP:  57; 6HR MAX TEMP:  58;

$$

WAZ019-023-024-040-567>569-251300-
CASCADE MOUNTAINS AND COLUMBIA GORGE

CITY           SKY/WX    TMP DP  RH WIND       PRES   REMARKS
STAMPEDE PASS  CLEAR     53  49  86 SW5       30.10R
6HR MIN TEMP:  53; 6HR MAX TEMP:  57;

TROUTDALE, OR  PTCLDY    58  55  90 CALM      29.97R
6HR MIN TEMP:  58; 6HR MAX TEMP:  72;

HOOD RIVER, OR MOSUNNY   61  54  77 CALM      29.95R
THE DALLES, OR PTCLDY    69  57  65 VRB3      29.90S
6HR MIN TEMP:  68; 6HR MAX TEMP:  81;

$$

WAZ026-027-041>044-520-521-251300-
EAST SLOPES

CITY           SKY/WX    TMP DP  RH WIND       PRES   REMARKS
OMAK           CLEAR     60  39  45 N9        30.01R
6HR MIN TEMP:  57; 6HR MAX TEMP:  72;

WENATCHEE      CLEAR     64  46  52 NW6       29.98R
6HR MIN TEMP:  63; 6HR MAX TEMP:  80;

ELLENSBURG     CLEAR     54  45  71 NE3       29.99R
6HR MIN TEMP:  54; 6HR MAX TEMP:  73;

YAKIMA         CLEAR     61  48  62 W10       29.96R
6HR MIN TEMP:  61; 6HR MAX TEMP:  69;

SUNNYSIDE ARPT   N/A     51  47  87 CALM      29.92R
6HR MIN TEMP:  51; 6HR MAX TEMP:  62;

YAKIMA TC      FAIR      63  45  52 E10       29.95R
6HR MIN TEMP:  63; 6HR MAX TEMP:  73;

$$

WAZ028-034-035-251300-
COLUMBIA BASIN

CITY           SKY/WX    TMP DP  RH WIND       PRES   REMARKS
EPHRATA        CLEAR     68  37  32 NW9       29.96R
6HR MIN TEMP:  67; 6HR MAX TEMP:  77;

MOSES LAKE     CLEAR     56  41  57 N8        29.96R
6HR MIN TEMP:  56; 6HR MAX TEMP:  70;

PASCO          PTCLDY    57  52  83 CALM      29.91R
6HR MIN TEMP:  56; 6HR MAX TEMP:  68;

RICHLAND ARPT  MOSUNNY   59  47  65 CALM      29.91R
6HR MIN TEMP:  58; 6HR MAX TEMP:  71;

HERMISTON, OR  PTCLDY    56  40  55 S6        29.91R
6HR MIN TEMP:  53; 6HR MAX TEMP:  70;

$$

WAZ036>038-251300-
NORTHEAST WASHINGTON

CITY           SKY/WX    TMP DP  RH WIND       PRES   REMARKS
SPOKANE GEIGER PTCLDY    61  39  44 N3        29.99R
6HR MIN TEMP:  61; 6HR MAX TEMP:  74;

SPOKANE FELTS  PTCLDY    55  42  61 CALM      29.99R
6HR MIN TEMP:  55; 6HR MAX TEMP:  69;

FAIRCHILD AFB  NOT AVBL
COEURDALENE,ID CLEAR     54  40  59 NE9       30.00S
6HR MIN TEMP:  51; 6HR MAX TEMP:  67;

DEER PARK      CLEAR     48  37  65 MISG      29.99S
6HR MIN TEMP:  47; 6HR MAX TEMP:  59;

$$

WAZ029>033-251300-
SOUTHEAST WASHINGTON

CITY           SKY/WX    TMP DP  RH WIND       PRES   REMARKS
PULLMAN        PTCLDY    51  37  58 CALM      30.00R
6HR MIN TEMP:  50; 6HR MAX TEMP:  63;

LEWISTON, ID   CLEAR     61  33  35 CALM      29.95R
6HR MIN TEMP:  59; 6HR MAX TEMP:  76;

WALLA WALLA    CLEAR     64  38  38 E5        29.92R
6HR MIN TEMP:  62; 6HR MAX TEMP:  72;

PENDLETON, OR  PTCLDY    59  38  45 SE9       29.94R
6HR MIN TEMP:  56; 6HR MAX TEMP:  70;

$$



USA.gov is the U.S. government's official web portal to all federal, state and local government web resources and services.